Нагоряны

Украина / Винницкая область     48°29′38″N   27°35′06″E
темп.,
°C
ветер,
м/с
пор.,
м/с
влажн.,
%
обл.,
%
осадки,
мм/ч
давл.,
гПа
погр.,
м
16 мая, вс
вс1600:00+12всв22815 0.0 101111
03:00+10всв228611 0.0 101119
06:00+10в348940 0.0 101072
09:00+16ююв5872100 0.1 1010466
12:00+21ююв6853100 0.0 10091379
15:00+22ююв684473 0.0 10081954
18:00+21ююв585585 0.0 10071205
21:00+16юв2371100 0.0 100724
17 мая, пн
пн1700:00+14ю117495 0.0 100711
03:00+14сз1174100 0.2 100610
06:00+13ссз3485100 0.0 1006101
09:00+15ссз5683100 0.0 1006392
12:00+18ссз457132 0.0 1005685
15:00+20сз22608 1.8 10031095
18:00+20сз115912 1.3 10021145
21:00+16в11753 1.6 100211
18 мая, вт
вт1800:00+14юв2284100 0.3 100114
03:00+13в228977 0.5 100016
06:00+12в2295100 2.1 100023
09:00+14св2389100 3.8 1000279
12:00+13всв599495 5.5 998619
15:00+16всв348287 8.0 997812
18:00+14сз91391100 2.9 999779
21:00+11сз111993100 7.8 1002927
19 мая, ср
ср1900:00+11сз101893100 12.1 1003967
03:00+11зсз101890100 13.4 10041026
06:00+11зсз111889100 1.1 1005934
09:00+12зсз11178690 1.1 1007921
12:00+16сз11166361 0.0 10081679
15:00+17зсз9126485 0.2 10091661
18:00+17сз610671 0.3 10101430
21:00+12зюз22830 0.3 101112
20 мая, чт
чт2000:00+10зсз118768 0.0 101110
03:00+10юв228851 0.0 101110
06:00+11вюв1285100 0.0 101030
09:00+14вюв3577100 0.0 1010329
12:00+12вюв2594100 2.3 1010324
15:00+13ю3594100 7.8 1010473
18:00+13зсз359297 1.6 1010363
21:00+11сз2597100 2.8 1011230